Location: Putah Creek Observatory
(38.7021°N, 122.3865°W)
Time: 07:32:49
(UTC-07:00)

Meteor 2-9 Rocket - Pass Details

Date: 27 May 2018
Orbit: 791 x 896 km, 81.3° (Epoch: 22 September)

Event Time Altitude Azimuth Distance (km) Brightness Sun altitude
Rises 21:30:57 0° 352° (N) 3,307 8.1 -11.5°
Reaches altitude 10° 21:33:19 10° 355° (N) 2,381 7.2 -11.8°
Maximum altitude 21:38:41 74° 80° (E) 845 4.1 -12.6°
Enters shadow 21:43:35 13° 165° (SSE) 2,204 5.9 -13.3°
